Powrót do katalogu

SUPERVIEW NEO-2 01

AktywnyNaukaSSO
NORAD 53128·PAYLOAD·🇨🇳 China

Wystrzelony Jul 15, 2022 z Taiyuan Satellite Launch Center

Loading…

Następne Przeloty (najbliższe 24 godziny)

TLE

ŚwieżeSource: Space-Track

Epoka: Sep 14, 2026, 23:03 UTC

1 53128U 22082A   26257.96047478  .00003959  00000-0  16390-3 0  9998
2 53128  97.3936 266.7523 0001718  87.2469 272.8965 15.24509791231886

Śledź SUPERVIEW NEO-2 01 w czasie rzeczywistym z AllMySat

Download on the App Store